Aeroporto :
LOGIN :

Iscrizione | Disclaimer

   EN    FR    IT 

 










Sommario :    VFR   VFR Marginale   IFR   IFR Intensivo   IFR Molto Intensivo
Visibilità : 
Base nubi : 
>= 8 km
>= 3000ft
5 / 8 km
1000 / 3000 ft
1500m / 5 km
500 / 1000 ft
800 / 1500m
200 / 500 ft
< 800m
< 200 ft
Simboli :   Temporali  Nebbia  Neve Forte  Precipitazioni Forti  Vento > 20 kt
SIGMETs :   Varie  Temporali  Ghiacco  Turbolenza  Onda orograficha  Ceneri Vulcaniche







- Altitudine del aeroporto : 650 ft
- Codice IATA : ZJI


LSZL - Locarno

ULTIMO METAR :
  • 181450Z 12010KT 080V160 CAVOK 09/M15 Q1013 RMK BLU

METARs OBSOLETI :
  • 181420Z 12011KT 090V150 CAVOK 09/M15 Q1013 RMK BLU
  • 181350Z 12010KT CAVOK 09/M15 Q1013 RMK BLU
  • 181320Z 14010KT 100V160 CAVOK 09/M15 Q1013 RMK BLU
  • 181250Z 13010KT 090V170 CAVOK 09/M15 Q1013 RMK BLU

TAF TAF LSZL
Valido dal 18 a 12 ore il 18 a 21 ore UTC


181125Z 1812/1821 10008KT CAVOK
PROB40
TEMPO 1812/1815 10015G25KT
BECMG 1816/1819 9999 BKN030
PROB40
TEMPO 1820/1821 3000 -SN BKN012
Nessun NOTAM noto per questo aeroporto.



MetMap, La meteo Aeronautica in un colpo d'occhio ! - Copyright ORBIFLY Dicembre 2007 - Disclaimer

ORBIFLY MET'MAP TEAM :

Programmazione e sviluppo : Alexandra Zaïnal
Concezione e sviluppo : Baudouin d'Aumeries
Co-Programmazione e sviluppo : Marc-Olivier Méhu
Supporto tecnico e logistico : Manuel Goepfert
Aiuto per la traduzione : Arnaldo La Scala

Contatto : metmap@orbifly.com




FONTI E CREDITI :

   NOAA